Voltar ao catálogo

COSMOS 761

AtivoMilitarLEO
NORAD 8285·PAYLOAD·🇷🇺 Russia

Lançado Sep 17, 1975 de Plesetsk Cosmodrome

Loading…

Próximas Passagens (próximas 24 horas)

TLE

AtualizadoSource: Space-Track

Época: Sep 14, 2026, 12:06 UTC

1 08285U 75086A   26257.50429184 -.00000020  00000-0 -22946-4 0  9995
2 08285  74.0061 266.1144 0053376 292.8660 226.9521 12.55818405337711

Acompanhe COSMOS 761 em tempo real com AllMySat

Download on the App Store